Year,Month,Day,Hour,Minute,Value (Times are PST for temperature in C)
2011,10,01,12,50,13.80
2011,10,01,12,51,13.80
2011,10,01,12,52,13.80
2011,10,01,12,53,13.80
2011,10,01,12,54,13.80
2011,10,01,12,55,13.80
2011,10,01,12,56,13.90
2011,10,01,12,57,13.90
2011,10,01,12,58,13.90
2011,10,01,12,59,13.90
2011,10,01,13,00,13.90
2011,10,01,13,01,13.90
2011,10,01,13,02,14.00
2011,10,01,13,03,13.90
2011,10,01,13,04,13.90
2011,10,01,13,05,14.00
2011,10,01,13,06,14.00
2011,10,01,13,07,14.00
2011,10,01,13,08,14.00
2011,10,01,13,09,14.00
2011,10,01,13,10,14.00
2011,10,01,13,11,14.00
2011,10,01,13,12,14.00
2011,10,01,13,13,14.10
2011,10,01,13,14,14.10
2011,10,01,13,15,14.10
2011,10,01,13,16,14.10
2011,10,01,13,17,14.20
2011,10,01,13,18,14.20
2011,10,01,13,19,14.30
2011,10,01,13,20,14.30
2011,10,01,13,21,14.40
2011,10,01,13,22,14.40
2011,10,01,13,23,14.40
2011,10,01,13,24,14.50
2011,10,01,13,25,14.50
2011,10,01,13,26,14.50
2011,10,01,13,27,14.60
2011,10,01,13,28,14.60
2011,10,01,13,29,14.60
2011,10,01,13,30,14.60
2011,10,01,13,31,14.60
2011,10,01,13,32,14.70
2011,10,01,13,33,14.70
2011,10,01,13,34,14.70
2011,10,01,13,35,14.60
2011,10,01,13,36,14.60
2011,10,01,13,37,14.60
2011,10,01,13,38,14.60
2011,10,01,13,39,14.50
2011,10,01,13,40,14.50
2011,10,01,13,41,14.50
2011,10,01,13,42,14.60
2011,10,01,13,43,14.60
2011,10,01,13,44,14.60
2011,10,01,13,45,14.50
2011,10,01,13,46,14.60
2011,10,01,13,47,14.60
2011,10,01,13,48,14.60
2011,10,01,13,49,14.60
2011,10,01,13,50,14.70
2011,10,01,13,51,14.70
2011,10,01,13,52,14.80
2011,10,01,13,53,14.80
2011,10,01,13,54,14.90
2011,10,01,13,55,15.00
2011,10,01,13,56,15.00
2011,10,01,13,57,15.00
2011,10,01,13,58,15.00
2011,10,01,13,59,15.00
2011,10,01,14,00,15.00
2011,10,01,14,01,15.00
2011,10,01,14,02,15.00
2011,10,01,14,03,15.10
2011,10,01,14,04,15.10
2011,10,01,14,05,15.10
2011,10,01,14,06,15.10
2011,10,01,14,07,15.10
2011,10,01,14,08,15.10
2011,10,01,14,09,15.10
2011,10,01,14,10,15.10
2011,10,01,14,11,15.20
2011,10,01,14,12,15.20
2011,10,01,14,13,15.20
2011,10,01,14,14,15.30
2011,10,01,14,15,15.30
2011,10,01,14,16,15.30
2011,10,01,14,17,15.40
2011,10,01,14,18,15.50
2011,10,01,14,19,15.50
2011,10,01,14,20,15.60
2011,10,01,14,21,15.60
2011,10,01,14,22,15.60
2011,10,01,14,23,15.70
2011,10,01,14,24,15.70
2011,10,01,14,25,15.70
2011,10,01,14,26,15.70
2011,10,01,14,27,15.70
2011,10,01,14,28,15.70
2011,10,01,14,29,15.60
2011,10,01,14,30,15.50
2011,10,01,14,31,15.40
2011,10,01,14,32,15.40
2011,10,01,14,33,15.30
2011,10,01,14,34,15.20
2011,10,01,14,35,15.10
2011,10,01,14,36,15.00
2011,10,01,14,37,15.00
2011,10,01,14,38,15.00
2011,10,01,14,39,15.00
2011,10,01,14,40,15.00
2011,10,01,14,41,15.00
2011,10,01,14,42,15.00
2011,10,01,14,43,14.90
2011,10,01,14,44,14.90
2011,10,01,14,45,14.80
2011,10,01,14,46,14.80
2011,10,01,14,47,14.70
2011,10,01,14,48,14.70
2011,10,01,14,49,14.60
2011,10,01,14,50,14.50
2011,10,01,14,51,14.50
2011,10,01,14,52,14.40
2011,10,01,14,53,14.30
2011,10,01,14,54,14.30
2011,10,01,14,55,14.30
2011,10,01,14,56,14.30
2011,10,01,14,57,14.20
2011,10,01,14,58,14.20
2011,10,01,14,59,14.10
2011,10,01,15,00,14.10
2011,10,01,15,01,14.00
2011,10,01,15,02,13.90
2011,10,01,15,03,13.90
2011,10,01,15,04,13.90
2011,10,01,15,05,13.80
2011,10,01,15,06,13.80
2011,10,01,15,07,13.80
2011,10,01,15,08,13.80
2011,10,01,15,09,13.80
2011,10,01,15,10,13.70
2011,10,01,15,11,13.70
2011,10,01,15,12,13.70
2011,10,01,15,13,13.80
2011,10,01,15,14,13.80
2011,10,01,15,15,13.80
2011,10,01,15,16,13.80
2011,10,01,15,17,13.80
2011,10,01,15,18,13.80
2011,10,01,15,19,13.80
2011,10,01,15,20,13.80
2011,10,01,15,21,13.70
2011,10,01,15,22,13.70
2011,10,01,15,23,13.70
2011,10,01,15,24,13.60
2011,10,01,15,25,13.60
2011,10,01,15,26,13.60
2011,10,01,15,27,13.60
2011,10,01,15,28,13.50
2011,10,01,15,29,13.50
2011,10,01,15,30,13.50
2011,10,01,15,31,13.50
2011,10,01,15,32,13.50
2011,10,01,15,33,13.50
2011,10,01,15,34,13.60
2011,10,01,15,35,13.60
2011,10,01,15,36,13.60
2011,10,01,15,37,13.60
2011,10,01,15,38,13.60
2011,10,01,15,39,13.60
2011,10,01,15,40,13.70
2011,10,01,15,41,13.70
2011,10,01,15,42,13.70
2011,10,01,15,43,13.70
2011,10,01,15,44,13.70
2011,10,01,15,45,13.70
2011,10,01,15,46,13.70
2011,10,01,15,47,13.70
2011,10,01,15,48,13.70
2011,10,01,15,49,13.70
2011,10,01,15,50,13.70
2011,10,01,15,51,13.70
2011,10,01,15,52,13.70
2011,10,01,15,53,13.70
2011,10,01,15,54,13.70
2011,10,01,15,55,13.70
2011,10,01,15,56,13.70
2011,10,01,15,57,13.70
2011,10,01,15,58,13.70
2011,10,01,15,59,13.70
2011,10,01,16,00,13.60
2011,10,01,16,01,13.60
2011,10,01,16,02,13.60
2011,10,01,16,03,13.60
2011,10,01,16,04,13.60
2011,10,01,16,05,13.60
2011,10,01,16,06,13.60
2011,10,01,16,07,13.60
2011,10,01,16,08,13.60
2011,10,01,16,09,13.60
2011,10,01,16,10,13.60
2011,10,01,16,11,13.60
2011,10,01,16,12,13.60
2011,10,01,16,13,13.70
2011,10,01,16,14,13.70
2011,10,01,16,15,13.70
2011,10,01,16,16,13.70
2011,10,01,16,17,13.70
2011,10,01,16,18,13.70
2011,10,01,16,19,13.70
2011,10,01,16,20,13.70
2011,10,01,16,21,13.70
2011,10,01,16,22,13.70
2011,10,01,16,23,13.70
2011,10,01,16,24,13.70
2011,10,01,16,25,13.70
2011,10,01,16,26,13.80
2011,10,01,16,27,13.70
2011,10,01,16,28,13.70
2011,10,01,16,29,13.70
2011,10,01,16,30,13.70
2011,10,01,16,31,13.70
2011,10,01,16,32,13.70
2011,10,01,16,33,13.70
2011,10,01,16,34,13.70
2011,10,01,16,35,13.70
2011,10,01,16,36,13.70
2011,10,01,16,37,13.70
2011,10,01,16,38,13.70
2011,10,01,16,39,13.70
2011,10,01,16,40,13.70
2011,10,01,16,41,13.70
2011,10,01,16,42,13.60
2011,10,01,16,43,13.60
2011,10,01,16,44,13.60
2011,10,01,16,45,13.60
2011,10,01,16,46,13.60
2011,10,01,16,47,13.60
2011,10,01,16,48,13.60
2011,10,01,16,49,13.70
2011,10,01,16,50,13.70
2011,10,01,16,51,13.70
2011,10,01,16,52,13.70
2011,10,01,16,53,13.80
2011,10,01,16,54,13.80
2011,10,01,16,55,13.90
2011,10,01,16,56,13.90
2011,10,01,16,57,14.00
2011,10,01,16,58,14.10
2011,10,01,16,59,14.20
2011,10,01,17,00,14.20
2011,10,01,17,01,14.30
2011,10,01,17,02,14.30
2011,10,01,17,03,14.30
2011,10,01,17,04,14.30
2011,10,01,17,05,14.30
2011,10,01,17,06,14.30
2011,10,01,17,07,14.30
2011,10,01,17,08,14.30
2011,10,01,17,09,14.30
2011,10,01,17,10,14.30
2011,10,01,17,11,14.30
2011,10,01,17,12,14.40
2011,10,01,17,13,14.40
2011,10,01,17,14,14.40
2011,10,01,17,15,14.50
2011,10,01,17,16,14.50
2011,10,01,17,17,14.50
2011,10,01,17,18,14.50
2011,10,01,17,19,14.40
2011,10,01,17,20,14.40
2011,10,01,17,21,14.30
2011,10,01,17,22,14.30
2011,10,01,17,23,14.20
2011,10,01,17,24,14.20
2011,10,01,17,25,14.20
2011,10,01,17,26,14.20
2011,10,01,17,27,14.20
2011,10,01,17,28,14.20
2011,10,01,17,29,14.20
2011,10,01,17,30,14.20
2011,10,01,17,31,14.20
2011,10,01,17,32,14.10
2011,10,01,17,33,14.10
2011,10,01,17,34,14.10
2011,10,01,17,35,14.10
2011,10,01,17,36,14.10
2011,10,01,17,37,14.10
2011,10,01,17,38,14.10
2011,10,01,17,39,14.10
2011,10,01,17,40,14.10
2011,10,01,17,41,14.10
2011,10,01,17,42,14.10
2011,10,01,17,43,14.00
2011,10,01,17,44,14.00
2011,10,01,17,45,13.90
2011,10,01,17,46,13.90
2011,10,01,17,47,13.90
2011,10,01,17,48,13.90
2011,10,01,17,49,13.90
2011,10,01,17,50,13.90
2011,10,01,17,51,13.90
2011,10,01,17,52,13.80
2011,10,01,17,53,13.80
2011,10,01,17,54,13.80
2011,10,01,17,55,13.80
2011,10,01,17,56,13.80
2011,10,01,17,57,13.80
2011,10,01,17,58,13.80
2011,10,01,17,59,13.70
2011,10,01,18,00,13.70
2011,10,01,18,01,13.70
2011,10,01,18,02,13.70
2011,10,01,18,03,13.60
2011,10,01,18,04,13.60
2011,10,01,18,05,13.60
2011,10,01,18,06,13.50
2011,10,01,18,07,13.50
2011,10,01,18,08,13.50
2011,10,01,18,09,13.40
2011,10,01,18,10,13.40
2011,10,01,18,11,13.40
2011,10,01,18,12,13.30
2011,10,01,18,13,13.30
2011,10,01,18,14,13.30
2011,10,01,18,15,13.20
2011,10,01,18,16,13.20
2011,10,01,18,17,13.20
2011,10,01,18,18,13.10
2011,10,01,18,19,13.10
2011,10,01,18,20,13.10
2011,10,01,18,21,13.00
2011,10,01,18,22,13.00
2011,10,01,18,23,12.90
2011,10,01,18,24,12.90
2011,10,01,18,25,12.80
2011,10,01,18,26,12.80
2011,10,01,18,27,12.80
2011,10,01,18,28,12.70
2011,10,01,18,29,12.70
2011,10,01,18,30,12.70
2011,10,01,18,31,12.70
2011,10,01,18,32,12.60
2011,10,01,18,33,12.60
2011,10,01,18,34,12.50
2011,10,01,18,35,12.50
2011,10,01,18,36,12.50
2011,10,01,18,37,12.40
2011,10,01,18,38,12.40
2011,10,01,18,39,12.30
2011,10,01,18,40,12.30
2011,10,01,18,41,12.30
2011,10,01,18,42,12.30
2011,10,01,18,43,12.30
2011,10,01,18,44,12.30
2011,10,01,18,45,12.30
2011,10,01,18,46,12.30
2011,10,01,18,47,12.30
2011,10,01,18,48,12.30
2011,10,01,18,49,12.30
2011,10,01,18,50,12.30
2011,10,01,18,51,12.30
